FENGYUN 1C DEB, 29997

Orbit data source: Space-Track

FENGYUN 1C DEB, 29997 is space debris in SSO originally from a launch on Mon, 10 May 1999 UTC launched from the Taiyaun Space Center, China (TSC). Fengyun 1C debris stems from the Chinese weather satellite Fengyun-1C, which was intentionally destroyed by a Chinese anti-satellite missile in 2007. This event dramatically increased the amount of space debris, with thousands of trackable fragments posing hazards to satellites and human spaceflight. The Fengyun 1C debris cloud has become a focal point in discussions about space sustainability and the need for international regulations to prevent the creation of new debris.

Loading next visibility...
Identifier
29997, 1999-025LX
Orbit
SSO
Country
Flag of CNCN / PRC
Related business
Manufacturer
Unknown
Mission
Spacecraft
Bus & Motor
Unknown
Mass
Unknown
Launch date (UTC)
1999-05-10 (27 years ago)
Launch vehicle
Unknown
Launch site
Taiyaun Space Center, China (TSC)
Object type
Payload
Rocket body
Debris
Shape & HBR
Unknown shape, 0.2 m
Radar Cross Section
Small (<0.1 m²)

Expand to show TLE details & history
Last TLE update: 6 hours ago

TLE from 6 hours ago
0 FENGYUN 1C DEB
1 29997U 99025LX  26095.30169865  .00001033  00000-0  69646-3 0  9992
2 29997  98.8898 107.7177 0080940  12.1977   3.8646 14.01161765979808
Epoch: 2026-04-05T07:14Z
TLE epoch observation values (Epoch: 2026-04-05T07:14:26.763Z)
Latitude
15.90773°
Longitude
162.95566°
Altitude
833.287 km
Speed
7.468 km/s
True Right ascension
07h 00m 42s
True Declination
15° 49' 06"
Sunlit
Object was in daylight at epoch
Visualization orbit readout
Latitude
Unknown
Longitude
Unknown
Altitude
Unknown
Speed
Unknown
Apparent Right ascension
Unknown
Apparent Declination
Unknown
Sunlit
N/A
Visualization observer readout
Local Sidereal Time
19:27:15
Azimuth
Unknown
Elevation
Unknown
Doppler factor
Unknown
Orbital elements
Apogee altitude
945.771 km
Perigee altitude
828.163 km
Semi-major axis
7,265.104 km
Eccentricity
0.00809
Inclination
98.8898°
RAAN
107.7177°
Arg. of periapsis
12.1977°
True anomaly
3.92775°
Mean anomaly
3.8646°
Eccentric anomaly
3.89611°
Mean motion
3.50494 °/min
Orbital period
102.71 mins
BSTAR
0.00069646
Loading maneuver chart data...
Computing Atmospheric mass density...

Documentation

Showing up to 5 results
|